This is the latest recevied weather packets stored in our database for station/object E25WOP-13. If no packets are shown the sender has not sent any weather packets the latest 10 day(s).
| Time | Temp. | Humidity | Pressure | Rain* | Wind** | Luminosity | Snow |
|---|---|---|---|---|---|---|---|
| 1777792938 | 33.33° C | 67% | 1004.9 hPa | 0 mm | - | 547 W/m² | - |
| 1777792337 | 33.33° C | 68% | 1005.3 hPa | 0 mm | - | 575 W/m² | - |
| 1777791738 | 33.33° C | 69% | 1005.3 hPa | 0 mm | - | 808 W/m² | - |
| 1777791137 | 33.33° C | 69% | 1005.3 hPa | 0 mm | - | 1138 W/m² | - |
| 1777790537 | 33.33° C | 69% | 1005.6 hPa | 0 mm | - | 1100 W/m² | - |
| 1777789937 | 33.33° C | 71% | 1005.4 hPa | 0 mm | - | 1100 W/m² | - |
| 1777789337 | 32.78° C | 72% | 1005.7 hPa | 0 mm | - | 1102 W/m² | - |
| 1777788737 | 33.33° C | 72% | 1006.1 hPa | 0 mm | - | 991 W/m² | - |
| 1777788137 | 32.78° C | 73% | 1006.6 hPa | 0 mm | - | 1142 W/m² | - |
| 1777787537 | 33.33° C | 71% | 1006.9 hPa | 0 mm | - | 1143 W/m² | - |
| 1777786937 | 33.33° C | 70% | 1007 hPa | 0 mm | - | 970 W/m² | - |
| 1777786337 | 33.33° C | 69% | 1007.1 hPa | 0 mm | - | 1146 W/m² | - |
| 1777785737 | 33.33° C | 71% | 1007.3 hPa | 0 mm | - | 1149 W/m² | - |
| 1777785137 | 33.33° C | 71% | 1007.5 hPa | 0 mm | - | 1150 W/m² | - |
| 1777784537 | 33.33° C | 71% | 1007.6 hPa | 0 mm | - | 1149 W/m² | - |
| 1777783937 | 33.33° C | 69% | 1007.8 hPa | 0 mm | - | 1150 W/m² | - |
| 1777783337 | 32.78° C | 67% | 1008.1 hPa | 0 mm | - | 1148 W/m² | - |
| 1777782737 | 33.33° C | 70% | 1008.3 hPa | 0 mm | - | 1146 W/m² | - |
| 1777782137 | 33.33° C | 68% | 1008.2 hPa | 0 mm | - | 1143 W/m² | - |
| 1777781537 | 33.33° C | 71% | 1008.5 hPa | 0 mm | - | 1144 W/m² | - |
| 1777780937 | 33.33° C | 70% | 1008.5 hPa | 0 mm | - | 1141 W/m² | - |
| 1777780337 | 33.33° C | 69% | 1008.7 hPa | 0 mm | - | 1139 W/m² | - |
| 1777779737 | 33.33° C | 68% | 1008.8 hPa | 0 mm | - | 1139 W/m² | - |
| 1777779137 | 33.33° C | 70% | 1008.8 hPa | 0 mm | - | 1102 W/m² | - |
| 1777778537 | 32.78° C | 70% | 1009 hPa | 0 mm | - | 1140 W/m² | - |
* Rain latest hour (hover to see other rain measurements)
** Current wind speed in m/s (hover to see current wind gust speed)